sat.trackr.live / text

‹ back to catalog

STARLINK-32681

NORAD 62506 · 2025-003V

PAYLOAD ACTIVE UNKNOWN

§ Identity

Operator
Country
US
Launch date
2025-01-06
Launch site
AFETR
Launch vehicle
Mass (kg)
RCS (m²)

Purposes: comms

External: N2YO · Heavens-Above · Gunter

§ Orbital elements

Epoch: 2026-05-25T03:26:22.621632Z

Period
94.27 min
Inclination
42.9995°
Eccentricity
0.0001143
Mean motion
15.27592660 rev/d
Perigee alt
482.2 km
Apogee alt
483.8 km
Semi-major
6,861.1 km
B*
8.4478e-4
RAAN
198.6539°
Arg perigee
295.1970°
Mean anomaly
64.8763°
Rev number
7,857

§ Raw data

STARLINK-326811 62506U 25003V   26145.14331738  .00023066  00000+0  84478-3 0  99972 62506  42.9995 198.6539 0001143 295.1970  64.8763 15.27592660 78576

JSON: /api/v1/satellites/62506 · /tle

For live sub-satellite position, see the globe view (requires WebGL).

§ Visibility from observer

Set your observer location to see the next 7 days of passes ≥ 10°. The values pass through the URL so the page stays shareable.

No JS? Fill the form by hand. The geolocation button needs JavaScript.